Dewpoint
59 59 59 59 59 59 59 59 59 59 59 59 59 59 58 58 58 58 59 59 59 59 58 58 58 58 58 58 58 58 58 58 58 58 58 58 58 58 58 58 58 58 59 59 59 59 58 55 50 46 46 46 46 46 46 49 50 49 46 48 48 49 50 58 59 59 59 59 60 60 60 60 60 60 60 60 60 60 60 60 61 61 61 60 60 60 60 59 59 59 59 59 59 59 59 59 59 60 60 61 61 61 60
59 59 59 59 59 59 59 59 59 59 59 59 59 59 59 58 58 58 59 59 59 58 58 58 58 58 58 58 58 58 58 58 58 58 58 59 59 59 58 58 58 59 59 59 59 59 58 54 49 46 47 47 46 46 46 48 48 47 46 47 47 49 52 58 59 59 59 59 60 60 61 61 60 60 60 60 60 60 59 60 60 60 60 60 60 60 60 60 60 59 59 59 59 59 59 59 59 59 59 60 60 60 60
59 59 59 59 59 59 59 59 59 59 59 59 59 60 59 59 59 58 59 59 58 58 58 58 58 58 58 58 58 58 58 58 58 58 58 59 59 59 58 58 58 59 59 60 60 59 58 56 50 46 47 46 46 46 47 48 48 47 46 47 47 49 54 58 59 58 59 59 59 60 61 61 61 60 60 60 59 59 59 59 59 59 59 59 59 60 60 60 60 60 60 59 59 59 59 59 59 59 59 59 59 59 59
59 59 59 59 59 59 59 59 58 58 58 59 60 61 62 60 59 59 59 59 58 58 58 58 58 58 58 58 58 58 58 58 58 58 58 58 58 58 58 58 59 59 59 60 60 59 58 57 53 48 46 46 46 46 47 50 50 49 47 47 47 50 58 59 59 58 58 58 59 59 60 61 61 60 60 59 59 59 59 59 59 59 59 59 59 59 59 59 59 60 60 60 60 60 59 59 59 59 59 58 58 58 58
59 59 59 59 59 59 59 59 59 59 59 60 60 61 62 61 60 59 59 59 58 58 58 58 58 58 58 58 58 58 58 58 58 58 58 58 58 58 58 58 59 59 59 60 60 59 55 55 52 49 46 46 46 46 47 50 51 50 47 46 48 52 59 60 59 58 58 58 58 59 59 60 60 60 59 59 59 59 58 59 58 58 58 58 58 58 58 58 59 59 59 60 60 60 60 60 60 59 59 59 58 58 58
59 59 59 59 59 59 59 59 60 60 60 60 60 60 61 61 60 60 59 59 59 58 58 58 58 58 58 58 58 59 59 59 58 58 58 58 58 58 58 58 59 59 59 60 60 59 55 51 48 46 46 46 46 47 47 49 49 47 46 46 49 55 59 60 59 59 58 57 57 58 58 59 59 59 59 59 58 58 58 58 58 58 58 58 58 58 58 58 58 58 58 59 59 59 60 60 60 60 59 59 59 59 59
59 59 59 59 59 59 59 60 61 61 61 60 59 59 59 59 59 59 59 59 59 58 58 58 58 58 58 58 59 59 59 59 59 59 58 58 57 57 57 57 58 59 59 59 59 58 54 49 47 47 46 45 45 45 46 48 48 47 46 46 52 58 59 60 59 58 58 57 57 57 57 58 58 58 58 58 58 58 58 58 58 58 58 58 58 58 58 58 58 58 58 58 58 58 59 59 59 59 59 59 59 59 60
59 59 59 59 59 59 59 60 61 61 61 60 59 59 59 59 59 59 58 58 58 58 58 58 58 58 58 59 59 59 59 59 59 59 59 59 58 57 57 57 58 59 59 60 60 59 56 50 48 47 46 45 46 46 47 46 46 46 45 47 52 58 59 59 59 58 58 57 56 56 57 57 57 58 57 57 57 57 58 58 58 58 58 58 58 58 58 58 58 58 58 57 57 57 58 58 58 58 58 58 59 59 60
59 59 59 59 59 59 59 60 60 60 60 60 59 59 59 59 58 58 58 58 58 58 58 58 58 58 58 59 59 59 59 59 59 59 59 59 59 58 57 57 57 58 59 60 60 59 58 52 49 46 46 45 46 48 50 46 44 44 43 48 53 58 59 59 58 57 57 56 56 56 56 57 57 57 57 57 57 57 57 57 58 58 58 57 57 58 58 58 58 58 58 58 57 57 57 57 57 57 57 58 58 59 59
59 59 59 59 59 59 59 59 60 60 59 59 59 59 59 58 58 58 58 58 58 58 58 58 58 58 58 59 59 59 59 59 59 59 59 59 59 59 58 57 58 59 60 60 60 59 58 52 48 46 45 45 46 48 50 45 45 45 44 51 56 59 59 58 57 57 57 56 56 55 55 56 56 56 56 56 56 56 57 57 57 57 57 57 57 57 57 58 58 59 59 59 59 58 58 58 57 57 58 57 58 58 58
60 60 60 59 59 59 59 59 59 59 59 59 59 59 59 58 58 58 58 58 58 58 58 58 58 58 59 59 59 59 59 59 59 59 59 59 59 59 58 58 58 59 60 60 59 58 57 51 47 45 45 45 46 48 45 45 45 46 45 52 57 59 59 57 56 56 57 56 55 55 55 55 56 56 56 56 56 56 56 56 56 56 56 56 56 57 57 57 58 58 59 59 59 59 59 59 59 59 59 59 59 58 58
60 60 60 59 59 59 59 59 59 59 59 59 59 59 59 59 59 58 58 58 58 58 58 58 59 59 59 59 59 59 58 58 59 59 59 59 60 59 59 59 59 60 60 59 58 56 55 49 46 45 44 44 45 45 44 44 44 43 44 54 58 58 57 56 55 56 56 56 55 55 54 55 55 55 55 55 55 55 55 55 55 56 56 56 56 56 56 57 57 57 58 58 59 59 60 61 61 62 61 61 61 60 59
60 60 60 59 59 59 59 59 59 59 59 59 59 59 59 59 59 59 59 59 59 59 59 59 59 59 59 59 58 57 57 58 59 59 60 60 60 60 60 60 60 59 59 57 55 54 51 47 45 44 43 44 43 42 45 46 45 45 48 56 58 56 55 55 55 55 56 55 55 54 53 54 54 55 55 55 55 55 55 55 55 55 55 55 56 56 56 56 56 56 57 57 58 58 59 60 61 62 62 63 63 62 62
61 60 60 60 60 60 59 60 60 59 59 59 59 59 59 59 59 59 59 59 59 59 60 60 60 60 59 57 57 56 57 58 59 59 60 60 60 61 61 60 59 57 56 55 51 49 46 45 44 44 43 42 42 43 49 47 45 46 54 55 56 55 55 55 55 55 55 55 54 54 53 54 54 55 55 55 55 55 55 55 55 55 55 55 55 55 55 55 56 56 56 56 56 57 58 59 59 60 61 62 62 62 63
61 61 60 62 61 60 60 60 60 60 59 59 59 60 60 60 60 60 60 60 60 61 61 61 61 59 57 56 55 55 55 56 57 58 58 59 59 59 59 57 56 55 54 50 46 44 44 43 43 43 44 42 41 43 46 46 45 48 57 55 55 55 55 55 55 55 55 54 54 53 53 54 54 55 55 55 55 55 55 55 55 55 55 55 55 55 55 55 55 55 55 56 56 56 56 57 57 58 59 59 60 60 61
61 61 62 63 62 61 60 60 60 60 60 60 60 60 61 61 61 61 62 61 61 61 61 61 60 58 55 54 54 54 53 54 55 55 55 55 55 55 55 54 53 52 50 46 44 43 42 42 42 43 44 41 41 42 45 45 47 52 56 55 54 54 54 55 55 55 54 54 53 54 54 55 55 55 55 55 55 55 55 55 55 55 55 55 55 55 55 55 55 55 55 55 55 56 56 56 56 57 57 57 57 58 59
62 62 63 63 63 61 61 61 61 61 60 60 61 61 61 62 62 62 62 62 61 61 60 59 58 56 54 53 52 50 47 48 50 51 53 53 53 52 51 51 50 48 45 43 42 41 41 41 41 42 42 41 41 43 46 44 49 54 54 53 53 53 54 54 54 54 53 53 53 54 55 55 55 55 55 55 55 55 55 55 55 55 55 55 55 55 55 55 55 55 55 55 55 55 56 56 56 56 56 56 56 57 57
63 63 64 64 63 62 62 62 62 61 61 61 61 62 62 62 62 62 62 61 60 59 59 57 56 55 53 51 49 46 42 42 42 44 48 50 50 50 49 48 46 43 42 42 41 40 40 40 41 41 41 41 41 42 47 46 50 54 52 52 53 53 53 53 53 53 53 53 54 54 55 55 55 55 55 55 55 55 55 55 55 55 55 55 55 55 55 55 55 55 55 55 55 55 55 55 55 55 55 56 56 56 56
63 63 64 64 64 63 63 63 62 62 62 61 62 62 62 62 62 61 61 59 59 57 56 55 54 53 52 50 47 44 41 40 39 39 41 44 46 47 46 44 41 40 40 40 39 39 39 40 41 41 41 40 41 42 46 47 50 52 52 52 52 52 52 52 52 52 53 54 54 55 55 55 55 55 55 55 55 55 55 55 55 55 55 55 55 55 55 55 55 55 55 55 55 55 55 55 55 55 55 55 56 56 56
61 61 63 63 64 64 63 63 62 61 61 61 61 61 61 61 60 60 59 57 56 55 54 53 52 51 51 47 43 41 41 40 39 39 39 39 41 41 41 40 39 38 38 38 38 39 39 39 40 41 40 39 40 41 44 47 50 51 51 51 51 51 51 51 51 52 54 54 55 55 55 55 55 55 55 55 55 55 55 55 55 55 55 55 55 55 55 54 54 54 55 55 55 55 55 55 55 55 55 55 55 56 56
57 57 59 60 61 61 60 59 59 59 60 61 59 57 56 57 58 58 57 55 54 53 53 51 47 45 45 42 41 40 40 40 39 39 39 38 38 38 37 37 37 37 37 37 37 38 39 39 39 39 38 39 39 40 41 50 52 51 51 51 50 50 50 51 52 53 55 55 55 55 54 54 54 54 54 54 55 55 55 55 55 54 54 55 54 54 54 54 54 54 54 54 55 55 55 55 55 55 55 55 55 55 56
54 55 55 56 56 57 57 56 56 56 56 59 56 52 51 51 52 53 52 48 48 48 47 46 43 41 41 41 40 39 39 40 39 38 38 37 37 37 37 37 37 36 36 36 37 38 38 39 39 38 37 38 37 38 41 50 52 51 51 50 50 50 50 52 53 54 55 55 54 54 53 53 53 53 53 53 54 54 54 54 54 54 54 54 54 54 54 54 54 54 54 54 54 55 55 55 55 55 55 55 55 55 56
54 55 55 55 55 55 55 55 55 54 53 57 54 50 48 47 48 48 46 43 41 41 41 41 41 41 40 39 39 39 38 40 40 38 37 37 37 37 36 36 36 36 35 35 36 37 37 38 38 38 37 37 37 37 41 50 52 51 51 50 50 50 51 52 53 54 55 54 54 53 53 52 52 52 52 53 53 53 54 54 54 54 54 54 54 54 53 53 53 53 54 54 54 54 54 54 55 55 55 55 55 55 55
54 55 55 55 55 55 54 54 54 53 51 53 51 49 47 46 45 45 44 42 41 40 40 40 40 40 39 38 38 38 37 39 40 39 37 36 36 35 35 35 35 35 35 35 35 36 36 36 37 37 36 36 35 37 42 51 52 51 50 50 50 50 52 53 54 54 54 53 53 52 52 52 52 52 52 52 53 53 53 53 53 53 53 54 54 53 53 53 53 53 53 53 53 53 54 54 54 54 54 54 55 55 55
54 55 55 55 55 54 53 54 53 52 50 49 49 49 47 45 44 43 43 42 41 40 39 39 39 39 37 37 37 37 37 37 37 37 36 36 35 34 34 34 34 34 34 34 35 35 35 35 36 36 35 35 35 37 42 51 52 50 50 50 50 50 51 52 53 53 53 52 52 52 52 52 52 52 52 52 53 53 53 53 53 53 53 53 53 53 53 53 53 53 53 52 53 53 53 53 53 53 53 54 54 54 55
54 55 54 54 54 53 53 53 53 51 50 48 48 47 46 44 43 43 42 41 40 39 39 38 38 37 37 37 37 37 37 37 37 36 36 35 35 34 33 33 33 34 33 34 34 34 35 35 35 35 35 35 35 36 41 51 52 50 50 49 49 50 50 51 51 51 52 52 52 52 52 52 52 52 52 52 52 53 53 53 53 53 53 53 53 53 52 52 52 52 52 52 52 52 52 53 53 53 53 53 53 54 54
54 55 53 53 53 54 54 53 52 51 49 47 47 46 45 44 43 42 41 41 39 38 38 37 37 37 37 37 37 38 38 37 37 37 36 35 35 34 33 32 32 33 33 33 34 34 35 35 35 35 35 35 35 36 37 46 50 50 50 49 49 49 49 50 50 50 51 51 51 51 51 52 52 52 52 52 52 52 52 52 53 53 53 53 53 53 52 52 52 51 51 51 51 51 51 52 52 52 52 53 53 53 53
53 53 53 52 54 55 54 53 51 50 48 47 46 46 44 43 42 41 41 40 39 38 38 38 38 38 38 38 38 38 38 37 37 37 36 36 35 35 33 32 32 32 32 33 33 34 34 34 34 34 34 34 34 35 36 43 49 51 50 49 48 48 48 48 49 50 50 51 51 51 51 52 52 52 51 51 51 51 51 51 52 52 53 53 53 52 52 52 51 51 51 51 51 50 51 51 51 51 51 52 52 52 52
53 53 53 53 54 54 54 52 51 50 48 47 47 46 44 42 41 41 40 40 39 38 38 38 38 38 38 38 39 40 40 38 37 36 36 35 35 35 34 32 32 32 32 33 33 34 34 34 34 34 34 34 34 34 36 42 48 52 50 50 48 48 47 47 48 49 49 50 50 51 51 51 51 51 51 51 50 50 50 50 50 51 51 52 52 52 52 52 52 51 51 51 51 51 51 50 50 50 51 51 51 51 52
53 53 53 52 52 53 53 51 50 49 48 48 47 46 45 43 42 41 40 39 39 38 37 37 37 37 37 38 39 40 41 39 36 34 34 34 34 35 35 33 32 32 32 32 33 34 34 34 34 34 34 34 34 34 35 41 47 52 51 50 49 48 47 47 47 47 48 49 50 50 50 50 51 51 50 50 50 50 50 50 50 50 51 51 51 52 52 52 52 52 52 52 52 51 51 51 51 50 50 50 50 51 51
53 52 52 52 52 52 52 51 50 49 47 47 47 46 45 44 42 41 40 39 38 37 37 37 37 37 37 38 38 39 41 39 36 33 33 33 33 34 35 33 32 31 32 32 33 33 34 34 34 34 33 33 34 34 34 38 44 50 52 51 50 49 48 47 47 47 47 48 49 49 50 50 50 50 50 50 50 49 50 50 50 50 50 51 51 51 52 52 52 52 52 52 52 52 52 51 51 51 51 50 50 50 51
53 53 52 52 52 52 51 50 50 49 47 47 46 45 44 43 41 41 39 38 37 37 37 37 37 37 37 37 38 39 39 38 36 33 32 32 32 33 34 33 32 31 32 32 32 33 33 34 34 33 33 33 33 34 34 37 39 44 52 53 52 50 49 48 47 47 47 48 48 49 49 49 49 49 49 49 49 49 49 50 50 50 50 50 51 51 51 52 52 52 52 52 52 52 52 51 51 51 51 51 51 51 51
53 53 52 53 52 52 50 50 50 48 47 46 45 44 43 42 41 40 39 38 37 37 37 37 37 37 37 37 38 38 37 36 35 34 32 32 32 32 32 31 31 31 32 32 32 33 34 34 34 33 32 33 33 33 34 36 37 40 48 53 54 52 51 50 48 47 48 48 48 48 48 48 49 49 48 48 48 48 49 49 50 50 50 50 50 51 51 51 51 52 52 52 52 52 51 51 51 51 51 51 51 51 51
53 53 52 52 52 51 50 50 50 48 46 45 43 42 41 40 39 38 37 37 35 34 34 35 35 36 37 37 37 37 37 36 35 34 32 31 31 32 32 31 31 31 32 32 32 33 34 34 33 32 32 32 33 33 34 36 37 38 41 49 53 54 53 52 50 49 48 48 48 47 47 48 48 48 48 47 47 47 48 48 49 49 50 50 50 50 51 51 51 51 51 51 52 51 51 51 51 51 51 50 50 50 50
53 53 52 52 51 50 50 50 49 48 46 43 41 40 39 38 37 36 36 36 36 35 35 35 35 35 36 37 37 38 37 36 35 34 32 31 31 31 31 31 31 31 31 32 32 33 34 34 33 32 32 32 32 33 34 36 37 37 39 46 50 52 53 53 52 51 49 49 48 48 47 47 47 47 47 47 47 47 47 47 48 48 49 50 50 50 50 50 50 50 51 51 51 51 51 51 51 50 50 50 50 50 50
53 53 52 52 51 51 51 50 49 47 45 41 39 38 37 37 37 37 37 38 38 38 38 37 38 38 37 37 38 38 38 36 35 34 33 32 31 31 31 31 31 31 31 32 33 33 33 33 32 32 31 32 33 34 35 36 36 37 38 40 44 47 48 50 50 51 51 51 50 49 47 46 46 46 46 46 46 46 46 46 46 47 48 49 50 50 50 50 50 50 50 50 51 51 51 51 50 50 50 50 50 50 50
53 53 52 52 52 51 50 49 47 45 42 40 38 37 37 37 37 37 37 38 38 39 40 40 41 42 40 39 39 39 38 36 34 33 33 32 32 31 30 31 31 30 30 32 33 33 33 33 32 32 32 32 33 34 35 36 36 36 37 38 40 41 42 42 45 48 50 51 51 50 49 46 46 45 45 45 45 45 45 45 46 46 47 48 49 49 49 49 49 50 50 50 50 50 50 50 50 50 50 50 50 50 50
53 53 52 52 51 51 50 49 46 43 40 38 37 37 37 37 37 37 38 38 38 39 39 39 40 41 41 39 39 39 39 35 34 33 33 32 31 30 30 31 30 29 30 32 33 33 32 32 32 32 32 32 33 34 35 35 36 36 37 38 39 39 39 39 41 42 44 48 50 50 50 47 46 45 45 45 45 44 44 45 45 45 46 47 48 48 48 48 49 49 50 50 50 50 50 50 50 50 50 50 50 50 50
53 53 53 52 51 51 50 48 44 41 39 38 37 37 37 37 38 38 39 39 39 40 39 37 37 36 38 38 39 39 40 36 34 33 33 32 31 30 29 31 30 29 31 32 32 32 32 32 32 32 32 32 33 34 34 34 34 35 36 37 38 39 40 39 39 39 39 42 46 48 50 48 46 46 45 45 45 45 45 45 45 45 45 46 46 47 47 47 48 49 50 50 50 50 50 50 50 50 50 50 50 50 50
54 54 54 53 52 51 50 46 42 40 38 37 37 37 37 38 39 39 40 39 39 39 38 37 35 33 35 38 38 37 38 36 34 33 33 32 31 29 29 30 29 28 31 32 31 31 32 33 32 32 31 32 32 32 33 32 32 33 34 36 37 38 40 40 40 39 37 38 40 43 48 47 47 46 46 46 45 45 45 45 45 45 44 45 45 46 46 46 47 48 50 50 50 50 50 50 50 49 50 50 50 50 49
54 54 54 54 53 51 49 44 41 39 38 37 37 37 37 38 39 39 39 39 39 38 37 37 34 32 33 37 38 37 36 36 34 33 33 32 30 29 29 29 28 28 30 32 31 30 32 33 33 32 30 30 31 31 31 30 30 31 32 33 35 37 40 41 40 39 37 36 37 38 43 45 46 46 46 45 45 46 46 45 45 44 44 44 44 45 45 45 46 47 49 49 50 50 49 49 49 49 50 49 49 49 49
54 54 55 54 52 50 46 43 41 39 37 37 37 37 37 38 38 39 38 39 39 39 39 38 36 34 35 37 37 36 35 35 34 33 33 31 30 29 28 28 28 28 30 31 30 30 32 33 33 32 30 29 29 29 29 29 29 29 29 30 32 35 37 37 36 35 34 34 33 34 36 41 43 44 44 44 44 45 45 45 45 44 44 43 43 43 44 44 45 46 48 48 49 49 49 49 49 49 50 49 49 49 49
55 55 54 54 52 49 45 42 40 38 37 37 37 37 37 38 38 38 38 39 39 40 39 38 37 36 37 37 36 35 34 34 34 34 33 31 29 28 28 28 28 28 29 29 29 29 30 31 33 33 31 29 28 28 28 28 27 27 28 28 29 30 31 31 31 31 32 32 31 31 31 35 39 41 41 41 42 42 43 44 44 43 43 43 43 43 43 43 44 46 47 48 48 48 48 48 49 49 50 49 49 49 49
55 54 54 54 51 48 44 42 40 38 37 37 37 37 38 38 38 38 38 39 39 40 39 38 38 38 37 36 36 35 34 34 34 34 34 31 29 28 27 27 27 28 28 29 29 29 29 29 31 32 30 29 28 28 28 27 27 26 27 26 27 27 27 28 28 29 29 30 30 30 29 30 33 37 38 39 39 40 41 42 42 42 42 42 42 42 42 43 44 45 46 47 47 46 47 47 48 49 49 49 49 49 49
55 54 53 52 50 47 43 41 39 38 37 37 37 38 38 38 38 39 38 38 39 39 39 38 38 38 37 36 36 36 35 35 35 35 33 30 29 28 26 26 26 27 28 29 30 29 28 28 28 28 28 28 28 29 30 30 28 26 26 25 25 26 26 26 27 27 28 28 28 28 28 28 29 30 32 34 34 35 37 40 41 41 42 42 43 43 43 43 44 45 46 46 46 46 46 46 47 48 49 49 49 49 49
54 54 52 51 49 47 43 40 39 38 37 37 37 38 39 39 40 40 39 38 38 38 38 38 39 39 39 37 37 36 36 35 35 35 31 28 29 30 28 26 25 27 28 30 31 30 27 28 27 25 27 27 28 28 30 32 30 27 25 24 25 25 25 26 26 26 27 27 27 27 28 27 28 28 29 29 28 29 32 37 39 41 41 42 43 43 44 44 44 45 45 45 45 45 45 45 46 47 48 48 48 48 48
54 53 53 51 49 46 42 40 38 38 37 37 37 37 39 40 40 39 38 37 37 37 38 38 38 39 40 39 37 36 36 35 34 32 27 26 28 30 31 27 25 26 27 29 32 32 26 25 25 25 26 28 27 27 28 30 28 26 25 25 24 24 24 25 25 25 25 26 26 26 26 27 27 27 28 28 27 27 29 32 36 38 40 41 42 43 44 44 45 45 45 44 44 44 44 45 45 46 47 47 47 48 48
54 53 53 51 49 46 41 39 38 38 37 37 37 37 38 39 39 39 37 37 38 40 41 39 37 35 35 34 34 35 35 34 33 29 24 23 23 25 28 26 25 25 26 28 32 33 28 23 23 24 24 25 25 26 26 27 27 25 25 25 24 23 23 25 25 25 25 25 25 25 26 26 26 27 27 27 27 26 26 28 31 35 38 39 41 41 43 44 45 45 45 44 43 44 44 44 45 46 47 47 47 47 47
54 53 52 50 47 45 41 39 39 39 38 38 37 37 37 39 39 39 39 39 40 41 41 41 38 35 33 33 32 32 34 34 32 29 24 21 21 22 24 24 24 25 26 27 31 33 28 23 23 24 24 24 25 26 26 27 26 25 25 25 23 23 23 24 24 25 24 24 24 25 25 25 26 26 26 26 26 25 25 26 27 29 33 37 38 40 41 43 45 45 45 44 44 44 44 45 46 46 47 47 47 47 47
53 52 51 49 47 44 41 39 39 39 38 38 37 37 37 39 41 41 41 39 38 37 37 37 36 35 32 32 32 32 33 33 30 26 25 22 20 20 22 23 24 26 27 27 30 31 26 23 23 23 24 24 25 25 26 27 27 26 24 23 23 23 23 23 24 24 24 24 24 24 25 25 25 25 25 25 24 24 24 24 25 26 30 30 33 37 40 43 45 45 46 45 45 45 45 46 46 46 47 47 47 47 48
52 52 50 49 46 44 42 39 39 39 38 39 39 39 41 42 42 41 39 38 37 36 35 34 34 34 32 31 31 31 32 34 28 22 21 23 23 21 21 22 24 26 26 26 29 32 29 25 23 23 24 25 25 24 26 27 28 28 25 23 23 23 23 23 24 24 23 23 23 24 24 24 24 24 24 23 23 23 23 24 24 25 26 27 30 34 36 41 45 46 46 46 46 45 45 46 46 46 47 47 47 47 48
52 51 50 48 46 45 42 40 39 39 40 39 39 39 40 40 40 39 38 37 36 35 34 32 31 31 31 31 31 31 32 34 30 25 23 24 25 24 23 24 23 21 20 22 26 29 30 28 25 23 23 25 25 24 25 27 28 29 29 24 23 23 23 23 24 24 23 23 23 23 24 24 24 23 23 23 23 23 23 24 24 25 26 27 31 36 38 44 46 46 47 46 46 45 45 45 45 46 46 46 47 47 47
52 51 50 48 46 45 42 40 39 39 40 38 38 38 40 40 40 39 37 36 35 33 32 31 29 28 28 29 30 31 35 35 32 30 28 26 24 23 24 23 20 18 18 17 19 21 23 23 23 23 22 24 25 24 24 26 28 29 31 26 23 23 23 23 24 23 23 23 23 23 24 24 23 23 22 22 23 23 23 24 25 25 26 27 31 34 35 43 46 46 47 46 46 45 43 43 44 44 45 46 46 47 47
52 50 50 48 47 45 42 41 39 39 40 39 38 38 39 40 40 39 37 36 34 33 33 33 30 26 26 26 27 30 32 35 33 30 28 27 24 23 21 21 20 20 19 19 19 19 19 19 18 19 21 24 25 25 24 26 27 27 31 28 25 23 23 24 23 23 23 23 23 23 24 24 23 23 22 22 23 23 24 24 25 26 27 28 31 34 36 41 44 45 46 46 45 43 42 42 42 43 44 45 46 46 46
51 50 49 48 46 45 43 41 40 39 39 38 38 37 38 39 39 38 37 36 34 33 33 32 30 28 26 25 27 29 30 33 33 31 28 28 26 25 24 26 24 21 16 19 20 20 20 19 19 21 23 24 24 24 24 25 26 27 32 30 26 23 24 24 23 23 22 23 23 24 24 24 23 23 22 22 23 23 24 24 25 26 26 28 32 36 39 41 42 43 45 45 44 43 42 42 42 43 44 44 45 46 46
51 50 49 48 46 45 43 41 40 39 39 38 38 37 37 38 38 39 38 36 34 33 32 31 28 27 27 26 28 29 31 30 32 34 32 32 32 31 28 28 23 19 19 19 19 20 22 20 20 20 20 22 23 23 23 25 25 26 30 28 25 24 25 24 23 23 22 23 23 24 24 25 24 22 22 22 23 23 23 24 25 25 26 28 31 34 36 37 39 40 42 42 43 42 41 41 42 43 44 44 45 45 46
51 50 49 48 46 44 43 41 40 39 39 38 38 37 37 37 38 39 38 36 34 33 32 30 28 26 26 28 29 30 31 31 34 36 35 34 34 33 28 28 28 28 28 28 27 24 21 22 19 16 16 21 24 26 25 25 24 24 26 25 24 24 25 23 23 22 23 23 23 23 24 26 24 22 22 22 23 23 24 24 25 25 26 28 29 31 34 36 37 39 41 41 41 41 41 41 42 43 44 44 45 45 46
51 50 49 47 46 44 43 42 41 40 39 39 38 37 37 37 38 38 38 37 35 33 32 30 28 26 26 29 31 32 30 30 30 31 33 32 31 31 30 29 28 28 32 31 29 26 22 19 17 16 18 19 21 23 24 23 23 23 23 23 23 23 23 22 22 22 23 23 23 23 23 23 23 23 22 23 23 23 24 24 25 25 26 27 28 31 34 37 38 39 39 40 40 41 42 42 42 43 44 44 45 45 45
51 50 49 47 46 45 44 43 41 41 40 40 39 38 37 37 38 38 38 37 36 34 32 31 29 28 29 30 30 30 29 29 29 29 29 31 31 31 30 30 31 32 32 29 28 26 24 19 18 18 19 16 16 19 21 21 22 22 23 22 23 23 23 23 22 22 23 23 23 23 23 22 23 23 23 23 23 24 24 24 25 25 26 27 28 30 34 37 38 39 40 41 41 41 42 42 43 43 44 44 45 45 45
51 50 49 47 46 45 44 44 42 41 40 41 40 38 37 37 38 38 38 38 38 37 33 31 30 29 30 29 28 27 27 28 28 29 30 30 31 32 32 30 30 30 30 28 27 26 25 23 22 21 19 16 14 14 16 19 22 22 22 21 22 23 23 23 23 23 23 23 23 23 23 22 23 23 22 23 24 25 24 25 25 25 26 27 28 30 33 33 34 36 38 41 41 41 41 42 43 43 44 44 44 45 45
50 50 49 47 46 45 45 44 43 42 41 41 41 39 38 38 38 38 38 37 38 37 34 32 31 30 29 28 26 25 27 28 28 29 30 30 31 33 34 31 30 29 29 28 26 26 25 25 25 24 22 19 16 14 13 17 19 20 20 21 22 23 23 22 23 23 23 23 23 23 23 23 22 22 22 24 26 26 25 25 25 25 25 26 27 29 32 32 32 33 35 38 40 41 41 42 42 43 43 44 44 45 45